Lancaster, PA

6:05 PM EDT on May 26, 2018 (GMT -0400)
Lancaster

Weather History for KLNS - May, 2013

Change the Weather History Date:

Wednesday, May 8, 2013

  Actual Average Record
Temperature  
Mean Temperature 62 °F -  
Max Temperature 71 °F 70 °F 89 °F (2000)
Min Temperature 53 °F 46 °F 33 °F (1981)
Degree Days  
Heating Degree Days 3    
Growing Degree Days 12 (Base 50)    
Moisture  
Dew Point 56 °F    
Average Humidity 82    
Maximum Humidity 97    
Minimum Humidity 51    
Precipitation  
Precipitation 0.06 in - - ()
Sea Level Pressure  
Sea Level Pressure 29.98 in    
Wind  
Wind Speed 7 mph (ESE)    
Max Wind Speed 13 mph    
Max Gust Speed 16 mph    
Visibility 8 miles    
Events Rain    
Averages and records for this station are not official NWS values.
T = Trace of Precipitation, MM = Missing Value Source: NWS Daily Summary

Daily Weather History Graph

Daily Weather History Graph

Search for Another Location

Airport or City:

Astronomy

May. 08, 2013 Rise Set
Actual Time 5:56 AM EDT 8:07 PM EDT
Civil Twilight 5:26 AM EDT 8:37 PM EDT
Nautical Twilight 4:49 AM EDT 9:14 PM EDT
Astronomical Twilight 4:09 AM EDT 9:55 PM EDT
Moon 5:03 AM EDT (5/8) 7:03 PM EDT (5/8)
Length of Visible Light 15h 11m
Length of Day
14h 10m
Waning Crescent, 2% of the Moon is Illuminated
May 8
Waning Crescent
May 9
New
May 18
First Quarter
May 25
Full
May 31
Last Quarter

Hourly Weather History & Observations

Time (EDT) Temp. Dew Point Humidity Pressure Visibility Wind Dir Wind Speed Gust Speed Precip Events Conditions
12:53 AM 60.1 °F 57.0 °F 90% 30.02 in 4.0 mi East 10.4 mph - 0.03 in Rain Rain
1:10 AM 59.0 °F 57.2 °F 94% 30.02 in 4.0 mi East 9.2 mph - 0.00 in Rain Light Rain
1:27 AM 59.0 °F 57.2 °F 94% 30.02 in 9.0 mi East 6.9 mph - 0.00 in   Overcast
1:53 AM 59.0 °F 57.0 °F 93% 30.01 in 8.0 mi East 6.9 mph - 0.00 in   Overcast
2:27 AM 60.8 °F 57.2 °F 88% 30.00 in 5.0 mi SE 8.1 mph - 0.00 in Rain Light Rain
2:53 AM 59.0 °F 57.0 °F 93% 29.99 in 5.0 mi ESE 5.8 mph - 0.00 in   Overcast
3:49 AM 59.0 °F 57.2 °F 94% 29.99 in 4.0 mi East 6.9 mph - 0.01 in Rain Light Rain
3:53 AM 59.0 °F 57.0 °F 93% 29.99 in 5.0 mi East 6.9 mph - 0.01 in Rain Light Rain
4:53 AM 57.9 °F 57.0 °F 97% 29.98 in 6.0 mi ENE 5.8 mph - 0.00 in   Overcast
5:06 AM 57.2 °F 55.4 °F 94% 29.98 in 6.0 mi ENE 6.9 mph - N/A   Overcast
5:53 AM 57.9 °F 55.9 °F 93% 29.98 in 5.0 mi East 4.6 mph - N/A   Overcast
6:16 AM 57.2 °F 55.4 °F 94% 29.99 in 5.0 mi East 3.5 mph - N/A   Overcast
6:26 AM 57.2 °F 55.4 °F 94% 29.99 in 4.0 mi ENE 4.6 mph - N/A   Overcast
6:53 AM 57.9 °F 55.9 °F 93% 29.99 in 4.0 mi ENE 5.8 mph - N/A   Overcast
7:53 AM 60.1 °F 57.0 °F 90% 29.99 in 9.0 mi East 5.8 mph - N/A   Mostly Cloudy
8:53 AM 61.0 °F 57.9 °F 90% 29.99 in 10.0 mi ENE 5.8 mph - N/A   Overcast
9:46 AM 64.4 °F 57.2 °F 77% 29.98 in 10.0 mi Calm Calm - N/A   Overcast
9:53 AM 63.0 °F 57.9 °F 84% 29.98 in 10.0 mi SSW 6.9 mph - N/A   Overcast
10:02 AM 62.6 °F 57.2 °F 82% 29.99 in 10.0 mi South 4.6 mph - N/A   Overcast
10:38 AM 62.6 °F 57.2 °F 82% 29.99 in 7.0 mi SW 6.9 mph - N/A   Overcast
10:53 AM 64.9 °F 59.0 °F 81% 29.99 in 10.0 mi SW 6.9 mph - N/A   Mostly Cloudy
11:08 AM 62.6 °F 57.2 °F 82% 29.99 in 10.0 mi SW 5.8 mph - N/A   Overcast
11:22 AM 62.6 °F 57.2 °F 82% 29.99 in 10.0 mi West 5.8 mph - N/A   Overcast
11:53 AM 64.9 °F 57.9 °F 78% 29.99 in 10.0 mi WSW 4.6 mph - N/A   Overcast
12:00 PM 64.4 °F 57.2 °F 77% 29.98 in 10.0 mi WNW 5.8 mph - N/A   Overcast
12:41 PM 62.6 °F 57.2 °F 82% 29.99 in 9.0 mi WNW 5.8 mph - 0.02 in Rain Light Rain
12:53 PM 63.0 °F 59.0 °F 87% 29.98 in 8.0 mi NW 4.6 mph - 0.02 in   Overcast
1:15 PM 66.2 °F 60.8 °F 83% 29.97 in 7.0 mi WNW 5.8 mph - N/A   Mostly Cloudy
1:53 PM 66.9 °F 57.9 °F 73% 29.96 in 10.0 mi NW 6.9 mph - N/A   Scattered Clouds
2:53 PM 71.1 °F 55.9 °F 59% 29.94 in 10.0 mi Calm Calm - N/A   Mostly Cloudy
3:53 PM 71.1 °F 53.1 °F 53% 29.92 in 10.0 mi ESE 5.8 mph - N/A   Overcast
4:53 PM 69.1 °F 51.1 °F 53% 29.90 in 10.0 mi South 12.7 mph 16.1 mph N/A   Scattered Clouds
5:53 PM 66.9 °F 48.0 °F 51% 29.91 in 10.0 mi South 12.7 mph - N/A   Clear
6:53 PM 64.9 °F 48.0 °F 54% 29.93 in 10.0 mi SW 6.9 mph - N/A   Clear
7:53 PM 59.0 °F 50.0 °F 72% 29.95 in 10.0 mi WNW 4.6 mph - N/A   Partly Cloudy
8:53 PM 57.0 °F 50.0 °F 77% 29.97 in 10.0 mi West 5.8 mph - N/A   Partly Cloudy
9:53 PM 55.0 °F 48.9 °F 80% 29.98 in 10.0 mi Calm Calm - N/A   Clear
10:53 PM 53.1 °F 48.9 °F 86% 29.98 in 7.0 mi East 3.5 mph - N/A   Clear
11:53 PM 55.0 °F 51.1 °F 86% 29.97 in 7.0 mi Calm Calm - 0.00 in Rain Light Rain